Delta, CO

1:25 AM MST on February 06, 2016 (GMT -0700)
Delta

Weather History for KAJZ - March, 2014

Change the Weather History Date:

Sunday, March 30, 2014

  Actual Average (KMTJ) Record (KMTJ)
Temperature  
Mean Temperature 57 °F 45 °F  
Max Temperature 68 °F 58 °F 75 °F (2015)
Min Temperature 46 °F 31 °F 16 °F (2009)
Degree Days  
Heating Degree Days 8 20  
Month to date heating degree days 719  
Since 1 July heating degree days 5434  
Cooling Degree Days 0 0  
Month to date cooling degree days 0  
Year to date cooling degree days 0  
Growing Degree Days 7 (Base 50)    
Moisture  
Dew Point 19 °F    
Average Humidity 27    
Maximum Humidity 38    
Minimum Humidity 13    
Precipitation  
Precipitation 0.00 in 0.04 in 0.16 in (2005)
Month to date precipitation 0.98  
Year to date precipitation 2.21  
Sea Level Pressure  
Sea Level Pressure 29.80 in    
Wind  
Wind Speed - (North)    
Max Wind Speed -    
Max Gust Speed -    
Visibility 10 miles    
Events      
T = Trace of Precipitation, MM = Missing Value Source: NWS Daily Summary

Daily Weather History Graph

Daily Weather History Graph

Search for Another Location

Airport or City:

Trip Planner

Search our weather history database for the weather conditions in past years. The results will help you decide how hot, cold, wet, or windy it might be!

Date:

Astronomy

Mar. 30, 2014 Rise Set
Actual Time 6:59 AM MDT 7:33 PM MDT
Civil Twilight 6:33 AM MDT 8:00 PM MDT
Nautical Twilight 6:01 AM MDT 8:32 PM MDT
Astronomical Twilight 5:29 AM MDT 9:04 PM MDT
Moon 6:47 AM MDT (3/30) 7:49 PM MDT (3/30)
Length of Visible Light 13h 27m
Length of Day
12h 33m
Waning Crescent, 0% of the Moon is Illuminated
Mar 30
Waning Crescent
Mar 30
New
Apr 7
First Quarter
Apr 15
Full
Apr 22
Last Quarter

Hourly Weather History & Observations

Time (MDT) Temp. Dew Point Humidity Pressure Visibility Wind Dir Wind Speed Gust Speed Precip Events Conditions
12:15 AM 48.4 °F 17.2 °F 29% 30.01 in 10.0 mi North - - N/A   Clear
12:35 AM 48.4 °F 17.6 °F 29% 30.00 in 10.0 mi North - - N/A   Clear
12:55 AM 48.4 °F 18.0 °F 30% 29.99 in 10.0 mi North - - N/A   Clear
1:15 AM 48.9 °F 18.1 °F 30% 29.98 in 10.0 mi North - - N/A   Clear
1:35 AM 48.2 °F 18.3 °F 31% 29.98 in 10.0 mi North - - N/A   Clear
1:55 AM 47.5 °F 18.3 °F 31% 29.96 in 10.0 mi North - - N/A   Clear
2:15 AM 47.3 °F 18.1 °F 31% 29.95 in 10.0 mi North - - N/A   Clear
2:35 AM 46.6 °F 18.7 °F 33% 29.94 in 10.0 mi North - - N/A   Clear
2:55 AM 46.9 °F 18.3 °F 32% 29.94 in 10.0 mi North - - N/A   Clear
3:15 AM 47.3 °F 18.9 °F 32% 29.92 in 10.0 mi North - - N/A   Clear
3:35 AM 47.8 °F 18.5 °F 31% 29.92 in 10.0 mi North - - N/A   Clear
3:55 AM 47.8 °F 18.3 °F 31% 29.91 in 10.0 mi North - - N/A   Clear
4:15 AM 47.5 °F 18.5 °F 32% 29.91 in 10.0 mi North - - N/A   Clear
4:35 AM 47.3 °F 18.9 °F 32% 29.89 in 10.0 mi North - - N/A   Clear
4:55 AM 48.4 °F 18.5 °F 31% 29.88 in 10.0 mi North - - N/A   Clear
5:15 AM 47.1 °F 18.5 °F 32% 29.88 in 10.0 mi North - - N/A   Clear
5:35 AM 48.2 °F 17.8 °F 30% 29.87 in 10.0 mi North - - N/A   Clear
5:55 AM 48.0 °F 17.8 °F 30% 29.87 in 10.0 mi North - - N/A   Clear
6:15 AM 49.1 °F 17.2 °F 28% 29.86 in 10.0 mi North - - N/A   Clear
6:35 AM 49.6 °F 18.0 °F 29% 29.86 in 10.0 mi North - - N/A   Clear
6:55 AM 49.1 °F 18.1 °F 29% 29.85 in 10.0 mi North - - N/A   Clear
7:15 AM 50.7 °F 18.0 °F 27% 29.86 in 10.0 mi North - - N/A   Clear
7:35 AM 51.6 °F 19.6 °F 28% 29.86 in 10.0 mi North - - N/A   Clear
7:55 AM 49.1 °F 19.9 °F 32% 29.87 in 10.0 mi North - - N/A   Scattered Clouds
8:15 AM 50.7 °F 19.4 °F 29% 29.87 in 10.0 mi North - - N/A   Scattered Clouds
8:35 AM 51.8 °F 20.1 °F 29% 29.87 in 10.0 mi North - - N/A   Clear
8:55 AM 52.9 °F 19.8 °F 27% 29.86 in 10.0 mi North - - N/A   Scattered Clouds
9:15 AM 55.6 °F 18.7 °F 24% 29.86 in 10.0 mi North - - N/A   Clear
9:35 AM 52.9 °F 21.9 °F 30% 29.85 in 10.0 mi North - - N/A   Clear
9:55 AM 52.7 °F 23.0 °F 31% 29.85 in 10.0 mi North - - N/A   Clear
10:15 AM 51.3 °F 25.7 °F 37% 29.84 in 10.0 mi North - - N/A   Clear
10:35 AM 54.7 °F 24.3 °F 31% 29.83 in 10.0 mi North - - N/A   Clear
10:55 AM 57.2 °F 23.0 °F 27% 29.82 in 10.0 mi North - - N/A   Clear
11:15 AM 59.2 °F 23.7 °F 26% 29.81 in 10.0 mi North - - N/A   Clear
11:35 AM 59.9 °F 23.0 °F 24% 29.80 in 10.0 mi North - - N/A   Clear
11:55 AM 60.8 °F 22.3 °F 23% 29.79 in 10.0 mi North - - N/A   Clear
12:15 PM 61.7 °F 21.0 °F 21% 29.78 in 10.0 mi North - - N/A   Clear
12:35 PM 63.1 °F 19.6 °F 19% 29.76 in 10.0 mi North - - N/A   Clear
12:55 PM 64.9 °F 18.1 °F 17% 29.75 in 10.0 mi North - - N/A   Clear
1:15 PM 66.6 °F 13.6 °F 13% 29.73 in 10.0 mi North - - N/A   Clear
1:35 PM 67.6 °F 14.2 °F 13% 29.71 in 10.0 mi North - - N/A   Clear
1:55 PM 66.9 °F 13.8 °F 13% 29.71 in 10.0 mi North - - N/A   Clear
2:15 PM 65.7 °F 13.8 °F 13% 29.69 in 10.0 mi North - - N/A   Clear
2:35 PM 64.6 °F 14.4 °F 14% 29.66 in 10.0 mi North - - N/A   Scattered Clouds
2:55 PM 65.5 °F 14.5 °F 14% 29.65 in 10.0 mi North - - N/A   Clear
3:15 PM 68.4 °F 15.4 °F 13% 29.63 in 10.0 mi North - - N/A   Clear
3:35 PM 68.2 °F 16.0 °F 14% 29.61 in 10.0 mi North - - N/A   Scattered Clouds
3:55 PM 67.3 °F 16.7 °F 14% 29.60 in 10.0 mi North - - N/A   Scattered Clouds
4:15 PM 63.9 °F 19.4 °F 18% 29.59 in 10.0 mi North - - N/A   Mostly Cloudy
4:35 PM 63.3 °F 17.8 °F 17% 29.56 in 10.0 mi North - - N/A   Overcast
4:55 PM 62.8 °F 19.6 °F 19% 29.58 in 4.0 mi North - - N/A   Haze
5:15 PM 60.4 °F 23.7 °F 24% 29.58 in 4.0 mi North - - N/A   Haze
5:35 PM 60.3 °F 26.1 °F 27% 29.56 in 4.0 mi North - - N/A   Haze
5:55 PM 60.1 °F 24.8 °F 26% 29.56 in 4.0 mi North - - N/A   Haze
6:15 PM 59.0 °F 26.4 °F 29% 29.58 in 5.0 mi North - - N/A   Haze
6:35 PM 55.9 °F 28.8 °F 35% 29.63 in 7.0 mi North - - N/A   Overcast
6:55 PM 54.0 °F 25.0 °F 33% 29.66 in 7.0 mi North - - N/A   Overcast
7:15 PM 54.0 °F 22.8 °F 30% 29.69 in 10.0 mi North - - N/A   Mostly Cloudy
7:35 PM 53.8 °F 14.7 °F 21% 29.71 in 10.0 mi North - - N/A   Scattered Clouds
7:55 PM 53.6 °F 9.9 °F 17% 29.72 in 10.0 mi North - - N/A   Clear
8:15 PM 52.7 °F 12.4 °F 20% 29.77 in 10.0 mi North - - N/A   Clear
8:35 PM 49.3 °F 20.3 °F 32% 29.79 in 10.0 mi North - - N/A   Scattered Clouds
8:55 PM 48.4 °F 21.9 °F 35% 29.81 in 10.0 mi North - - N/A   Clear
9:15 PM 47.8 °F 23.0 °F 38% 29.82 in 10.0 mi North - - N/A   Clear
9:35 PM 48.2 °F 21.2 °F 34% 29.83 in 10.0 mi North - - N/A   Scattered Clouds
9:55 PM 48.2 °F 20.5 °F 33% 29.83 in 10.0 mi North - - N/A   Scattered Clouds
10:15 PM 48.2 °F 19.9 °F 33% 29.85 in 10.0 mi North - - N/A   Scattered Clouds
10:35 PM 47.8 °F 19.9 °F 33% 29.86 in 10.0 mi North - - N/A   Scattered Clouds
10:55 PM 47.7 °F 19.8 °F 33% 29.87 in 10.0 mi North - - N/A   Mostly Cloudy
11:15 PM 47.8 °F 20.1 °F 33% 29.88 in 10.0 mi North - - N/A   Overcast
11:35 PM 47.5 °F 19.4 °F 33% 29.88 in 10.0 mi North - - N/A   Overcast
11:55 PM 46.6 °F 19.4 °F 34% 29.89 in 10.0 mi North - - N/A   Mostly Cloudy